Voltar ao catálogo

STARLINK-5881

AtivoComunicaçõesVLEO
NORAD 57054·PAYLOAD·🇺🇸 United States

Lançado Jun 22, 2023 de Vandenberg Space Force Base

Loading…

Próximas Passagens (próximas 24 horas)

TLE

AtualizadoSource: CelesTrak SupGP

Época: Sep 14, 2026, 21:22 UTC

1 57054C 23088G   26257.89076389 -.00038738  00000+0 -14032-2 0  2573
2 57054  42.9994 121.8967 0001166 248.7622  26.5533 15.27596040    13

Acompanhe STARLINK-5881 em tempo real com AllMySat

Download on the App Store